Ana Sayfa
METAR-TAF:

METAR-TAF

Havaalanları :

Wharton, Teksas, Amerika Birleşik Devletleri

Enlem: 29-15-15N, Boylam: 096-09-15W, yükseklik: 31 m

Güncel hava durumu gözlemi

Rapor saat 22:35 UTC de 30 dakika önce yapıldı.
Rüzgar kuzey/kuzeybatıdan 10 kt
Sıcaklık 23°C
Nem 38%
Basınç 1014 hPa
Görüş mesafesi: 16.1 km
Açık gökyüzü

METAR: KARM 262235Z AUTO 34010KT 10SM CLR 23/08 A2993 RMK AO2 T02320082

Saat: 17:05 (23:05 UTC)


TAF: eksik

4.000'den fazla havaalanı için hava durumu gözlemleri ve tahminleri (METAR ve TAF raporları).

Kullanılabilir istasyonlar harita üzerinde sarı ve kırmızı noktalarla gösterilir.

İstasyonun adını görmek için fareyi noktanın üzerinde gezdirin.

Sonrasında hava gözlem ve tahminlerini görmek için tıklayın.

Haritayı değiştirmek için: yaklaştırmak için siyah artı işaretli yeşil düğmeye ve uzaklaştırmak için de eksi işaretli düğmeye hızla tıklayın; bitişik haritalar için yeşil okları kullanın.


METAR-TAF: